Home > Weather > Kuching > Past weeks

Flag for Malaysia Past Weather in Kuching, Malaysia — Yesterday and Last 2 Weeks

Now
77 °F

Fog.


Feels Like: 78 °F
Forecast: 74 / 89 °F
Wind: 2 mph from Southeast

Location: Kuching Airport

Current Time: Jul 27, 2016 at 12:15:24 AM

Latest Report: Jul 26, 2016 at 11:30 PM


Visibility: 2 mi

Pressure: 29.86 "Hg

Humidity: 94%

Dew Point: 75 °F

Location of KuchingLocation

Past Weather in Kuching — Graph

°F

Kuching Temperature Yesterday

Maximum temperature yesterday: 81 °F (at 3:30 PM)
Minimum temperature yesterday: 75 °F (at 4:00 AM)
Average temperature yesterday: 78 °F

High & Low Weather Summary for the Past Weeks

 TemperatureHumidityPressure
High95 °F (Jul 12, 2:00 PM)100% (Jul 15, 4:30 AM)29.89 "Hg (Jul 15, 4:30 AM)
Low73 °F (Jul 13, 6:30 AM)47% (Jul 12, 2:30 PM)29.68 "Hg (Jul 14, 3:30 PM)
Average80 °F83%29.81 "Hg
* Reported Jul 11 11:00 PM — Jul 26 11:00 PM, Kuching, Weather by CustomWeather, © 2016

Note: Actual official high and low records may vary slightly from our data, if they occured in-between our weather recording intervals... More about our weather records

Advertising

Kuching Weather History for the Previous 24 Hours

Scroll right to see more
 ConditionsComfort  
Time TempWeatherWind HumidityBarometerVisibility
11:00 PM
Tue, Jul 26
77 °FFog.2 mph94%29.86 "Hg2 mi
10:30 PM77 °FPartly cloudy.2 mph94%29.86 "HgN/A
10:00 PM77 °FLight rain. Partly cloudy.2 mph94%29.86 "Hg5 mi
9:30 PM77 °FLight rain. Partly cloudy.1 mph94%29.86 "Hg5 mi
9:00 PM77 °FLight rain. Partly cloudy.No wind94%29.86 "Hg5 mi
8:30 PM77 °FLight rain. Partly cloudy.2 mph94%29.86 "Hg5 mi
8:00 PM79 °FLight rain. Partly cloudy.2 mph89%29.83 "Hg5 mi
7:30 PM79 °FPartly cloudy.2 mph89%29.83 "HgN/A
7:00 PM79 °FPartly cloudy.2 mph89%29.83 "HgN/A
6:30 PM79 °FBroken clouds.2 mph89%29.80 "HgN/A
6:00 PM79 °FBroken clouds.No wind89%29.80 "HgN/A
5:30 PM81 °FLight rain. Broken clouds.1 mph84%29.80 "HgN/A
5:00 PM81 °FLight rain. Broken clouds.2 mph84%29.80 "HgN/A
4:30 PM81 °FLight rain. Broken clouds.1 mph84%29.77 "HgN/A
4:00 PM81 °FLight rain. Broken clouds.1 mph84%29.77 "HgN/A
3:30 PM81 °FLight rain. Broken clouds.1 mph84%29.77 "HgN/A
3:00 PM79 °FBroken clouds.1 mph89%29.77 "HgN/A
2:30 PM79 °FLight rain. Broken clouds.1 mph89%29.80 "Hg5 mi
2:00 PM79 °FLight rain. Broken clouds.2 mph89%29.80 "Hg4 mi
1:30 PM77 °FLight rain. Broken clouds.2 mph94%29.83 "Hg4 mi
1:00 PM77 °FLight rain. Broken clouds.6 mph94%29.83 "Hg4 mi
12:30 PM77 °FLight rain. Broken clouds.5 mph94%29.86 "Hg4 mi
12:00 PM79 °FLight rain. Broken clouds.3 mph89%29.86 "Hg2 mi
11:30 AM79 °FLight rain. Broken clouds.2 mph89%29.86 "Hg5 mi
11:00 AM79 °FLight rain. Broken clouds.2 mph89%29.86 "Hg5 mi
10:30 AM79 °FBroken clouds.1 mph89%29.89 "HgN/A
10:00 AM77 °FLight rain. Broken clouds.No wind94%29.89 "HgN/A
9:30 AM77 °FBroken clouds.No wind94%29.89 "HgN/A
9:00 AM77 °FBroken clouds.No wind94%29.89 "HgN/A
8:30 AM77 °FBroken clouds.1 mph94%29.86 "HgN/A
8:00 AM77 °FBroken clouds.2 mph94%29.86 "HgN/A
7:30 AM75 °FBroken clouds.2 mph100%29.83 "HgN/A
7:00 AM75 °FBroken clouds.No wind100%29.83 "HgN/A
6:30 AM75 °FPartly cloudy.No wind100%29.83 "HgN/A
6:00 AM77 °FPartly cloudy.No wind89%29.83 "HgN/A
5:30 AM77 °FPartly cloudy.3 mph89%29.83 "HgN/A
5:00 AM77 °FPartly cloudy.2 mph94%29.80 "HgN/A
4:30 AM75 °FPartly cloudy.2 mph100%29.80 "HgN/A
4:00 AM75 °FPartly cloudy.3 mph100%29.80 "HgN/A
3:30 AM77 °FPartly cloudy.2 mph94%29.80 "HgN/A
3:00 AM77 °FPartly cloudy.2 mph94%29.80 "HgN/A
2:30 AM77 °FPartly cloudy.3 mph94%29.80 "HgN/A
2:00 AM77 °FPartly cloudy.No wind94%29.80 "HgN/A
1:30 AM77 °FPartly cloudy.2 mph89%29.83 "HgN/A
1:00 AM77 °FPartly cloudy.2 mph94%29.83 "HgN/A
12:30 AM77 °FPartly cloudy.1 mph94%29.83 "HgN/A
12:00 AM77 °FPartly cloudy.5 mph89%29.83 "HgN/A
Weather by CustomWeather, © 2016

See weather overviewHow to use our weather pages